TimePST,TemperatureF,Dew PointF,Humidity,Sea Level PressureIn,VisibilityMPH,Wind Direction,Wind SpeedMPH,Gust SpeedMPH,PrecipitationIn,Events,Conditions,WindDirDegrees,DateUTC
12:15 AM,35.6,14.0,41,30.16,10.0,North,4.6,-,N/A,,Clear,360,2013-02-24 08:15:00
12:35 AM,35.6,15.8,44,30.16,10.0,NNE,3.5,-,N/A,,Clear,20,2013-02-24 08:35:00
12:55 AM,35.6,15.8,44,30.16,10.0,North,4.6,-,N/A,,Clear,360,2013-02-24 08:55:00
1:15 AM,35.6,15.8,44,30.17,10.0,NNE,4.6,-,N/A,,Clear,20,2013-02-24 09:15:00
1:35 AM,35.6,15.8,44,30.16,10.0,NNE,3.5,-,N/A,,Clear,20,2013-02-24 09:35:00
1:55 AM,35.6,14.0,41,30.16,10.0,North,3.5,-,N/A,,Clear,360,2013-02-24 09:55:00
2:15 AM,35.6,14.0,41,30.16,10.0,NNW,4.6,-,N/A,,Clear,340,2013-02-24 10:15:00
2:35 AM,33.8,15.8,48,30.16,10.0,North,4.6,-,N/A,,Clear,360,2013-02-24 10:35:00
2:55 AM,35.6,14.0,41,30.15,10.0,NNE,4.6,-,N/A,,Clear,20,2013-02-24 10:55:00
3:15 AM,33.8,14.0,44,30.15,10.0,NNE,5.8,-,N/A,,Clear,30,2013-02-24 11:15:00
3:35 AM,33.8,15.8,48,30.15,10.0,North,3.5,-,N/A,,Clear,360,2013-02-24 11:35:00
4:15 AM,33.8,14.0,44,30.15,10.0,NNE,4.6,-,N/A,,Clear,20,2013-02-24 12:15:00
4:35 AM,35.6,14.0,41,30.15,10.0,North,4.6,-,N/A,,Clear,360,2013-02-24 12:35:00
4:55 AM,35.6,14.0,41,30.14,10.0,North,5.8,-,N/A,,Clear,10,2013-02-24 12:55:00
5:15 AM,35.6,14.0,41,30.14,10.0,NNE,4.6,-,N/A,,Clear,20,2013-02-24 13:15:00
5:35 AM,35.6,14.0,41,30.14,10.0,North,3.5,-,N/A,,Clear,350,2013-02-24 13:35:00
5:55 AM,35.6,12.2,38,30.14,10.0,North,3.5,-,N/A,,Clear,10,2013-02-24 13:55:00
6:15 AM,33.8,12.2,41,30.15,10.0,North,3.5,-,N/A,,Clear,360,2013-02-24 14:15:00
6:35 AM,33.8,12.2,41,30.15,10.0,Calm,Calm,-,N/A,,Clear,0,2013-02-24 14:35:00
6:55 AM,33.8,12.2,41,30.16,10.0,NNW,4.6,-,N/A,,Clear,330,2013-02-24 14:55:00
7:15 AM,35.6,10.4,35,30.16,10.0,NNE,5.8,-,N/A,,Clear,20,2013-02-24 15:15:00
7:35 AM,35.6,10.4,35,30.17,10.0,North,6.9,-,N/A,,Clear,10,2013-02-24 15:35:00
7:55 AM,37.4,10.4,33,30.17,10.0,NNE,5.8,-,N/A,,Clear,30,2013-02-24 15:55:00
8:15 AM,39.2,10.4,31,30.17,10.0,NNE,4.6,-,N/A,,Clear,20,2013-02-24 16:15:00
8:35 AM,41.0,8.6,26,30.17,10.0,NNE,3.5,-,N/A,,Clear,20,2013-02-24 16:35:00
8:55 AM,42.8,8.6,25,30.18,10.0,NW,4.6,-,N/A,,Clear,320,2013-02-24 16:55:00
9:15 AM,44.6,10.4,25,30.18,10.0,Calm,Calm,-,N/A,,Clear,0,2013-02-24 17:15:00
9:35 AM,44.6,10.4,25,30.19,10.0,Calm,Calm,-,N/A,,Clear,0,2013-02-24 17:35:00
9:55 AM,46.4,6.8,20,30.19,10.0,NNE,3.5,-,N/A,,Clear,20,2013-02-24 17:55:00
10:15 AM,46.4,5.0,18,30.19,10.0,Calm,Calm,-,N/A,,Clear,0,2013-02-24 18:15:00
10:35 AM,48.2,6.8,19,30.19,10.0,Calm,Calm,-,N/A,,Clear,0,2013-02-24 18:35:00
10:55 AM,48.2,5.0,17,30.19,10.0,Calm,Calm,-,N/A,,Clear,0,2013-02-24 18:55:00
11:15 AM,50.0,6.8,17,30.19,10.0,Calm,Calm,-,N/A,,Clear,0,2013-02-24 19:15:00
11:35 AM,50.0,6.8,17,30.19,10.0,West,4.6,-,N/A,,Clear,280,2013-02-24 19:35:00
11:55 AM,51.8,6.8,16,30.19,10.0,West,5.8,-,N/A,,Clear,280,2013-02-24 19:55:00
12:15 PM,51.8,6.8,16,30.19,10.0,NW,5.8,-,N/A,,Partly Cloudy,310,2013-02-24 20:15:00
12:35 PM,53.6,6.8,15,30.18,10.0,NW,4.6,-,N/A,,Clear,320,2013-02-24 20:35:00
12:55 PM,53.6,6.8,15,30.17,10.0,NNW,4.6,-,N/A,,Partly Cloudy,330,2013-02-24 20:55:00
1:15 PM,53.6,6.8,15,30.16,10.0,WNW,5.8,-,N/A,,Partly Cloudy,300,2013-02-24 21:15:00
1:35 PM,55.4,10.4,17,30.15,10.0,West,5.8,-,N/A,,Clear,280,2013-02-24 21:35:00
1:55 PM,55.4,8.6,15,30.15,10.0,WSW,5.8,-,N/A,,Clear,250,2013-02-24 21:55:00
2:15 PM,55.4,8.6,15,30.14,10.0,West,5.8,-,N/A,,Clear,280,2013-02-24 22:15:00
2:35 PM,57.2,10.4,16,30.14,10.0,West,3.5,-,N/A,,Clear,280,2013-02-24 22:35:00
2:55 PM,57.2,15.8,20,30.14,10.0,West,6.9,-,N/A,,Clear,270,2013-02-24 22:55:00
3:15 PM,57.2,15.8,20,30.15,10.0,West,8.1,-,N/A,,Clear,280,2013-02-24 23:15:00
3:35 PM,57.2,15.8,20,30.15,10.0,West,6.9,-,N/A,,Clear,280,2013-02-24 23:35:00
3:55 PM,55.4,17.6,23,30.14,10.0,WNW,6.9,-,N/A,,Clear,290,2013-02-24 23:55:00
4:15 PM,55.4,19.4,25,30.14,10.0,West,9.2,-,N/A,,Clear,270,2013-02-25 00:15:00
4:35 PM,53.6,19.4,26,30.15,10.0,West,8.1,-,N/A,,Clear,260,2013-02-25 00:35:00
4:55 PM,53.6,21.2,28,30.15,10.0,West,8.1,-,N/A,,Clear,270,2013-02-25 00:55:00
5:15 PM,51.8,19.4,28,30.16,10.0,West,4.6,-,N/A,,Clear,270,2013-02-25 01:15:00
5:35 PM,50.0,21.2,32,30.16,10.0,Calm,Calm,-,N/A,,Clear,0,2013-02-25 01:35:00
5:55 PM,48.2,23.0,37,30.17,10.0,Calm,Calm,-,N/A,,Clear,0,2013-02-25 01:55:00
6:15 PM,46.4,23.0,40,30.17,10.0,Calm,Calm,-,N/A,,Clear,0,2013-02-25 02:15:00
6:35 PM,46.4,24.8,43,30.17,10.0,Calm,Calm,-,N/A,,Clear,0,2013-02-25 02:35:00
6:55 PM,46.4,23.0,40,30.17,10.0,ESE,5.8,-,N/A,,Clear,110,2013-02-25 02:55:00
7:15 PM,44.6,23.0,43,30.17,10.0,ESE,3.5,-,N/A,,Clear,120,2013-02-25 03:15:00
7:35 PM,44.6,23.0,43,30.17,10.0,East,5.8,-,N/A,,Clear,100,2013-02-25 03:35:00
7:55 PM,44.6,23.0,43,30.17,10.0,Calm,Calm,-,N/A,,Clear,0,2013-02-25 03:55:00
8:15 PM,44.6,23.0,43,30.17,10.0,Calm,Calm,-,N/A,,Clear,0,2013-02-25 04:15:00
8:35 PM,44.6,24.8,46,30.17,10.0,Calm,Calm,-,N/A,,Clear,0,2013-02-25 04:35:00
8:55 PM,42.8,24.8,49,30.18,10.0,Calm,Calm,-,N/A,,Clear,0,2013-02-25 04:55:00
9:15 PM,44.6,23.0,43,30.18,10.0,Calm,Calm,-,N/A,,Clear,0,2013-02-25 05:15:00
9:35 PM,44.6,24.8,46,30.19,10.0,Calm,Calm,-,N/A,,Clear,0,2013-02-25 05:35:00
9:55 PM,42.8,24.8,49,30.20,10.0,Calm,Calm,-,N/A,,Clear,0,2013-02-25 05:55:00
10:15 PM,42.8,24.8,49,30.20,10.0,Calm,Calm,-,N/A,,Clear,0,2013-02-25 06:15:00
10:55 PM,41.0,24.8,53,30.21,10.0,Calm,Calm,-,N/A,,Clear,0,2013-02-25 06:55:00
11:15 PM,41.0,24.8,53,30.21,10.0,Calm,Calm,-,N/A,,Clear,0,2013-02-25 07:15:00
11:35 PM,41.0,23.0,49,30.22,10.0,Calm,Calm,-,N/A,,Clear,0,2013-02-25 07:35:00
11:55 PM,41.0,23.0,49,30.23,10.0,Calm,Calm,-,N/A,,Clear,0,2013-02-25 07:55:00